Year,Month,Day,Hour,Minute,Value (Times are PST for temperature in C)
2011,08,23,00,00,14.50
2011,08,23,00,01,14.50
2011,08,23,00,02,14.50
2011,08,23,00,03,14.50
2011,08,23,00,04,14.50
2011,08,23,00,05,14.50
2011,08,23,00,06,14.50
2011,08,23,00,07,14.50
2011,08,23,00,08,14.50
2011,08,23,00,09,14.50
2011,08,23,00,10,14.60
2011,08,23,00,11,14.60
2011,08,23,00,12,14.60
2011,08,23,00,13,14.60
2011,08,23,00,14,14.60
2011,08,23,00,15,14.50
2011,08,23,00,16,14.50
2011,08,23,00,17,14.50
2011,08,23,00,18,14.50
2011,08,23,00,19,14.50
2011,08,23,00,20,14.50
2011,08,23,00,21,14.60
2011,08,23,00,22,14.60
2011,08,23,00,23,14.70
2011,08,23,00,24,14.70
2011,08,23,00,25,14.70
2011,08,23,00,26,14.70
2011,08,23,00,27,14.70
2011,08,23,00,28,14.70
2011,08,23,00,29,14.70
2011,08,23,00,30,14.70
2011,08,23,00,31,14.70
2011,08,23,00,32,14.70
2011,08,23,00,33,14.70
2011,08,23,00,34,14.70
2011,08,23,00,35,14.70
2011,08,23,00,36,14.70
2011,08,23,00,37,14.70
2011,08,23,00,38,14.70
2011,08,23,00,39,14.70
2011,08,23,00,40,14.70
2011,08,23,00,41,14.70
2011,08,23,00,42,14.80
2011,08,23,00,43,14.80
2011,08,23,00,44,14.80
2011,08,23,00,45,14.80
2011,08,23,00,46,14.80
2011,08,23,00,47,14.80
2011,08,23,00,48,14.80
2011,08,23,00,49,14.80
2011,08,23,00,50,14.70
2011,08,23,00,51,14.70
2011,08,23,00,52,14.70
2011,08,23,00,53,14.70
2011,08,23,00,54,14.70
2011,08,23,00,55,14.70
2011,08,23,00,56,14.80
2011,08,23,00,57,14.80
2011,08,23,00,58,14.80
2011,08,23,00,59,14.80
2011,08,23,01,00,14.80
2011,08,23,01,01,14.90
2011,08,23,01,02,14.90
2011,08,23,01,03,14.90
2011,08,23,01,04,14.90
2011,08,23,01,05,14.90
2011,08,23,01,06,14.90
2011,08,23,01,07,14.90
2011,08,23,01,08,14.90
2011,08,23,01,09,14.90
2011,08,23,01,10,14.90
2011,08,23,01,11,14.90
2011,08,23,01,12,14.80
2011,08,23,01,13,14.80
2011,08,23,01,14,14.80
2011,08,23,01,15,14.80
2011,08,23,01,16,14.80
2011,08,23,01,17,14.70
2011,08,23,01,18,14.70
2011,08,23,01,19,14.70
2011,08,23,01,20,14.70
2011,08,23,01,21,14.70
2011,08,23,01,22,14.70
2011,08,23,01,23,14.80
2011,08,23,01,24,14.80
2011,08,23,01,25,14.80
2011,08,23,01,26,14.80
2011,08,23,01,27,14.90
2011,08,23,01,28,14.90
2011,08,23,01,29,15.00
2011,08,23,01,30,15.00
2011,08,23,01,31,15.10
2011,08,23,01,32,15.20
2011,08,23,01,33,15.30
2011,08,23,01,34,15.30
2011,08,23,01,35,15.40
2011,08,23,01,36,15.50
2011,08,23,01,37,15.50
2011,08,23,01,38,15.60
2011,08,23,01,39,15.60
2011,08,23,01,40,15.60
2011,08,23,01,41,15.60
2011,08,23,01,42,15.70
2011,08,23,01,43,15.80
2011,08,23,01,44,15.80
2011,08,23,01,45,15.80
2011,08,23,01,46,15.80
2011,08,23,01,47,15.80
2011,08,23,01,48,15.90
2011,08,23,01,49,16.00
2011,08,23,01,50,16.10
2011,08,23,01,51,16.10
2011,08,23,01,52,16.10
2011,08,23,01,53,16.10
2011,08,23,01,54,16.20
2011,08,23,01,55,16.20
2011,08,23,01,56,16.10
2011,08,23,01,57,16.10
2011,08,23,01,58,16.10
2011,08,23,01,59,16.20
2011,08,23,02,00,16.20
2011,08,23,02,01,16.30
2011,08,23,02,02,16.30
2011,08,23,02,03,16.30
2011,08,23,02,04,16.30
2011,08,23,02,05,16.30
2011,08,23,02,06,16.30
2011,08,23,02,07,16.40
2011,08,23,02,08,16.40
2011,08,23,02,09,16.40
2011,08,23,02,10,16.40
2011,08,23,02,11,16.40
2011,08,23,02,12,16.40
2011,08,23,02,13,16.60
2011,08,23,02,14,16.60
2011,08,23,02,15,16.60
2011,08,23,02,16,16.60
2011,08,23,02,17,16.60
2011,08,23,02,18,16.60
2011,08,23,02,19,16.60
2011,08,23,02,20,16.60
2011,08,23,02,21,16.70
2011,08,23,02,22,16.70
2011,08,23,02,23,16.70
2011,08,23,02,24,16.70
2011,08,23,02,25,16.70
2011,08,23,02,26,16.70
2011,08,23,02,27,16.70
2011,08,23,02,28,16.60
2011,08,23,02,29,16.60
2011,08,23,02,30,16.70
2011,08,23,02,31,16.70
2011,08,23,02,32,16.70
2011,08,23,02,33,16.70
2011,08,23,02,34,16.70
2011,08,23,02,35,16.70
2011,08,23,02,36,16.70
2011,08,23,02,37,16.70
2011,08,23,02,38,16.70
2011,08,23,02,39,16.70
2011,08,23,02,40,16.70
2011,08,23,02,41,16.70
2011,08,23,02,42,16.70
2011,08,23,02,43,16.70
2011,08,23,02,44,16.70
2011,08,23,02,45,16.70
2011,08,23,02,46,16.70
2011,08,23,02,47,16.60
2011,08,23,02,48,16.60
2011,08,23,02,49,16.60
2011,08,23,02,50,16.60
2011,08,23,02,51,16.60
2011,08,23,02,52,16.60
2011,08,23,02,53,16.50
2011,08,23,02,54,16.40
2011,08,23,02,55,16.40
2011,08,23,02,56,16.40
2011,08,23,02,57,16.40
2011,08,23,02,58,16.40
2011,08,23,02,59,16.40
2011,08,23,03,00,16.40
2011,08,23,03,01,16.40
2011,08,23,03,02,16.40
2011,08,23,03,03,16.40
2011,08,23,03,04,16.40
2011,08,23,03,05,16.40
2011,08,23,03,06,16.40
2011,08,23,03,07,16.40
2011,08,23,03,08,16.40
2011,08,23,03,09,16.30
2011,08,23,03,10,16.30
2011,08,23,03,11,16.30
2011,08,23,03,12,16.30
2011,08,23,03,13,16.30
2011,08,23,03,14,16.20
2011,08,23,03,15,16.20
2011,08,23,03,16,16.20
2011,08,23,03,17,16.10
2011,08,23,03,18,16.10
2011,08,23,03,19,16.10
2011,08,23,03,20,16.10
2011,08,23,03,21,16.10
2011,08,23,03,22,16.00
2011,08,23,03,23,15.90
2011,08,23,03,24,15.90
2011,08,23,03,25,15.90
2011,08,23,03,26,15.80
2011,08,23,03,27,15.80
2011,08,23,03,28,15.80
2011,08,23,03,29,15.80
2011,08,23,03,30,15.80
2011,08,23,03,31,15.80
2011,08,23,03,32,15.70
2011,08,23,03,33,15.70
2011,08,23,03,34,15.70
2011,08,23,03,35,15.70
2011,08,23,03,36,15.60
2011,08,23,03,37,15.60
2011,08,23,03,38,15.60
2011,08,23,03,39,15.50
2011,08,23,03,40,15.50
2011,08,23,03,41,15.50
2011,08,23,03,42,15.50
2011,08,23,03,43,15.40
2011,08,23,03,44,15.40
2011,08,23,03,45,15.40
2011,08,23,03,46,15.40
2011,08,23,03,47,15.30
2011,08,23,03,48,15.30
2011,08,23,03,49,15.30
2011,08,23,03,50,15.30
2011,08,23,03,51,15.30
2011,08,23,03,52,15.30
2011,08,23,03,53,15.30
2011,08,23,03,54,15.30
2011,08,23,03,55,15.30
2011,08,23,03,56,15.30
2011,08,23,03,57,15.30
2011,08,23,03,58,15.40
2011,08,23,03,59,15.40
2011,08,23,04,00,15.40
2011,08,23,04,01,15.50
2011,08,23,04,02,15.50
2011,08,23,04,03,15.50
2011,08,23,04,04,15.50
2011,08,23,04,05,15.50
2011,08,23,04,06,15.60
2011,08,23,04,07,15.60
2011,08,23,04,08,15.60
2011,08,23,04,09,15.60
2011,08,23,04,10,15.60
2011,08,23,04,11,15.60
2011,08,23,04,12,15.60
2011,08,23,04,13,15.50
2011,08,23,04,14,15.50
2011,08,23,04,15,15.50
2011,08,23,04,16,15.50
2011,08,23,04,17,15.50
2011,08,23,04,18,15.50
2011,08,23,04,19,15.40
2011,08,23,04,20,15.40
2011,08,23,04,21,15.40
2011,08,23,04,22,15.40
2011,08,23,04,23,15.40
2011,08,23,04,24,15.30
2011,08,23,04,25,15.30
2011,08,23,04,26,15.30
2011,08,23,04,27,15.30
2011,08,23,04,28,15.30
2011,08,23,04,29,15.30
2011,08,23,04,30,15.30
2011,08,23,04,31,15.30
2011,08,23,04,32,15.30
2011,08,23,04,33,15.30
2011,08,23,04,34,15.30
2011,08,23,04,35,15.20
2011,08,23,04,36,15.20
2011,08,23,04,37,15.20
2011,08,23,04,38,15.20
2011,08,23,04,39,15.20
2011,08,23,04,40,15.20
2011,08,23,04,41,15.20
2011,08,23,04,42,15.20
2011,08,23,04,43,15.20
2011,08,23,04,44,15.20
2011,08,23,04,45,15.20
2011,08,23,04,46,15.20
2011,08,23,04,47,15.20
2011,08,23,04,48,15.20
2011,08,23,04,49,15.20
2011,08,23,04,50,15.20
2011,08,23,04,51,15.20
2011,08,23,04,52,15.20
2011,08,23,04,53,15.20
2011,08,23,04,54,15.20
2011,08,23,04,55,15.20
2011,08,23,04,56,15.10
2011,08,23,04,57,15.10
2011,08,23,04,58,15.10
2011,08,23,04,59,15.10
2011,08,23,05,00,15.00
2011,08,23,05,01,15.00
2011,08,23,05,02,14.90
2011,08,23,05,03,14.90
2011,08,23,05,04,14.90
2011,08,23,05,05,14.90
2011,08,23,05,06,14.80
2011,08,23,05,07,14.80
2011,08,23,05,08,14.80
2011,08,23,05,09,14.80
2011,08,23,05,10,14.70
2011,08,23,05,11,14.70
2011,08,23,05,12,14.70
2011,08,23,05,13,14.70
2011,08,23,05,14,14.70
2011,08,23,05,15,14.60
2011,08,23,05,16,14.60
2011,08,23,05,17,14.60
2011,08,23,05,18,14.60
2011,08,23,05,19,14.60
2011,08,23,05,20,14.60
2011,08,23,05,21,14.50
2011,08,23,05,22,14.50
2011,08,23,05,23,14.50
2011,08,23,05,24,14.50
2011,08,23,05,25,14.50
2011,08,23,05,26,14.50
2011,08,23,05,27,14.50
2011,08,23,05,28,14.50
2011,08,23,05,29,14.50
2011,08,23,05,30,14.50
2011,08,23,05,31,14.50
2011,08,23,05,32,14.50
2011,08,23,05,33,14.50
2011,08,23,05,34,14.50
2011,08,23,05,35,14.50
2011,08,23,05,36,14.50
2011,08,23,05,37,14.60
2011,08,23,05,38,14.50
2011,08,23,05,39,14.50
2011,08,23,05,40,14.50
2011,08,23,05,41,14.50
2011,08,23,05,42,14.50
2011,08,23,05,43,14.50
2011,08,23,05,44,14.50
2011,08,23,05,45,14.40
2011,08,23,05,46,14.40
2011,08,23,05,47,14.30
2011,08,23,05,48,14.20
2011,08,23,05,49,14.20
2011,08,23,05,50,14.20
2011,08,23,05,51,14.10
2011,08,23,05,52,14.10
2011,08,23,05,53,14.00
2011,08,23,05,54,14.00
2011,08,23,05,55,13.90
2011,08,23,05,56,13.90
2011,08,23,05,57,13.90
2011,08,23,05,58,13.80
2011,08,23,05,59,13.80
2011,08,23,06,00,13.80
2011,08,23,06,01,13.70
2011,08,23,06,02,13.70
2011,08,23,06,03,13.70
2011,08,23,06,04,13.70
2011,08,23,06,05,13.70
2011,08,23,06,06,13.70
2011,08,23,06,07,13.70
2011,08,23,06,08,13.70
2011,08,23,06,09,13.70
2011,08,23,06,10,13.70
2011,08,23,06,11,13.70
2011,08,23,06,12,13.70
2011,08,23,06,13,13.70
2011,08,23,06,14,13.70
2011,08,23,06,15,13.70
2011,08,23,06,16,13.70
2011,08,23,06,17,13.70
2011,08,23,06,18,13.70
2011,08,23,06,19,13.70
2011,08,23,06,20,13.70
2011,08,23,06,21,13.70
2011,08,23,06,22,13.70
2011,08,23,06,23,13.70
2011,08,23,06,24,13.70
2011,08,23,06,25,13.70
2011,08,23,06,26,13.70
2011,08,23,06,27,13.70
2011,08,23,06,28,13.80
2011,08,23,06,29,13.80
2011,08,23,06,30,13.80
2011,08,23,06,31,13.80
2011,08,23,06,32,13.80
2011,08,23,06,33,13.90
2011,08,23,06,34,13.90
2011,08,23,06,35,13.90
2011,08,23,06,36,13.90
2011,08,23,06,37,13.90
2011,08,23,06,38,13.90
2011,08,23,06,39,14.00
2011,08,23,06,40,14.00
2011,08,23,06,41,14.00
2011,08,23,06,42,14.00
2011,08,23,06,43,14.00
2011,08,23,06,44,14.00
2011,08,23,06,45,14.10
2011,08,23,06,46,14.10
2011,08,23,06,47,14.10
2011,08,23,06,48,14.10
2011,08,23,06,49,14.20
2011,08,23,06,50,14.20
2011,08,23,06,51,14.20
2011,08,23,06,52,14.20
2011,08,23,06,53,14.20
2011,08,23,06,54,14.20
2011,08,23,06,55,14.20
2011,08,23,06,56,14.20
2011,08,23,06,57,14.30
2011,08,23,06,58,14.30
2011,08,23,06,59,14.40
2011,08,23,07,00,14.40
2011,08,23,07,01,14.40
2011,08,23,07,02,14.40
2011,08,23,07,03,14.50
2011,08,23,07,04,14.50
2011,08,23,07,05,14.50
2011,08,23,07,06,14.60
2011,08,23,07,07,14.60
2011,08,23,07,08,14.60
2011,08,23,07,09,14.60
2011,08,23,07,10,14.60
2011,08,23,07,11,14.60
2011,08,23,07,12,14.60
2011,08,23,07,13,14.60
2011,08,23,07,14,14.60
2011,08,23,07,15,14.60
2011,08,23,07,16,14.60
2011,08,23,07,17,14.70
2011,08,23,07,18,14.70
2011,08,23,07,19,14.70
2011,08,23,07,20,14.70
2011,08,23,07,21,14.70
2011,08,23,07,22,14.70
2011,08,23,07,23,14.70
2011,08,23,07,24,14.70
2011,08,23,07,25,14.70
2011,08,23,07,26,14.70
2011,08,23,07,27,14.70
2011,08,23,07,28,14.70
2011,08,23,07,29,14.70
2011,08,23,07,30,14.70
2011,08,23,07,31,14.70
2011,08,23,07,32,14.70
2011,08,23,07,33,14.70
2011,08,23,07,34,14.70
2011,08,23,07,35,14.70
2011,08,23,07,36,14.70
2011,08,23,07,37,14.70
2011,08,23,07,38,14.70
2011,08,23,07,39,14.70
2011,08,23,07,40,14.70
2011,08,23,07,41,14.70
2011,08,23,07,42,14.70
2011,08,23,07,43,14.70
2011,08,23,07,44,14.70
2011,08,23,07,45,14.70
2011,08,23,07,46,14.70
2011,08,23,07,47,14.70
2011,08,23,07,48,14.70
2011,08,23,07,49,14.70
2011,08,23,07,50,14.80
2011,08,23,07,51,14.80
2011,08,23,07,52,14.80
2011,08,23,07,53,14.80
2011,08,23,07,54,14.80
2011,08,23,07,55,14.80
2011,08,23,07,56,14.80
2011,08,23,07,57,14.80
2011,08,23,07,58,14.80
2011,08,23,07,59,14.80
2011,08,23,08,00,14.80
2011,08,23,08,01,14.80
2011,08,23,08,02,14.80
2011,08,23,08,03,14.90
2011,08,23,08,04,14.90
2011,08,23,08,05,14.90
2011,08,23,08,06,14.90
2011,08,23,08,07,14.90
2011,08,23,08,08,15.00
2011,08,23,08,09,15.00
2011,08,23,08,10,15.00
2011,08,23,08,11,15.00
2011,08,23,08,12,15.10
2011,08,23,08,13,15.10
2011,08,23,08,14,15.20
2011,08,23,08,15,15.20
2011,08,23,08,16,15.20
2011,08,23,08,17,15.30
2011,08,23,08,18,15.30
2011,08,23,08,19,15.30
2011,08,23,08,20,15.40
2011,08,23,08,21,15.50
2011,08,23,08,22,15.50
2011,08,23,08,23,15.50
2011,08,23,08,24,15.50
2011,08,23,08,25,15.50
2011,08,23,08,26,15.40
2011,08,23,08,27,15.40
2011,08,23,08,28,15.30
2011,08,23,08,29,15.30
2011,08,23,08,30,15.30
2011,08,23,08,31,15.30
2011,08,23,08,32,15.30
2011,08,23,08,33,15.20
2011,08,23,08,34,15.20
2011,08,23,08,35,15.20
2011,08,23,08,36,15.20
2011,08,23,08,37,15.20
2011,08,23,08,38,15.20
2011,08,23,08,39,15.10
2011,08,23,08,40,15.10
2011,08,23,08,41,15.10
2011,08,23,08,42,15.00
2011,08,23,08,43,15.00
2011,08,23,08,44,15.00
2011,08,23,08,45,14.90
2011,08,23,08,46,14.90
2011,08,23,08,47,14.90
2011,08,23,08,48,14.90
2011,08,23,08,49,14.90
2011,08,23,08,50,14.90
2011,08,23,08,51,14.90
2011,08,23,08,52,14.90
2011,08,23,08,53,14.90
2011,08,23,08,54,14.90
2011,08,23,08,55,14.90
2011,08,23,08,56,14.90
2011,08,23,08,57,14.90
2011,08,23,08,58,14.90
2011,08,23,08,59,14.90
2011,08,23,09,00,14.90
2011,08,23,09,01,14.90
2011,08,23,09,02,15.00
2011,08,23,09,03,15.00
2011,08,23,09,04,15.00
2011,08,23,09,05,15.00
2011,08,23,09,06,15.00
2011,08,23,09,07,15.00
2011,08,23,09,08,15.00
2011,08,23,09,09,15.10
2011,08,23,09,10,15.10
2011,08,23,09,11,15.20
2011,08,23,09,12,15.20
2011,08,23,09,13,15.20
2011,08,23,09,14,15.30
2011,08,23,09,15,15.30
2011,08,23,09,16,15.30
2011,08,23,09,17,15.30
2011,08,23,09,18,15.30
2011,08,23,09,19,15.40
2011,08,23,09,20,15.40
2011,08,23,09,21,15.50
2011,08,23,09,22,15.50
2011,08,23,09,23,15.60
2011,08,23,09,24,15.60
2011,08,23,09,25,15.70
2011,08,23,09,26,15.70
2011,08,23,09,27,15.80
2011,08,23,09,28,15.80
2011,08,23,09,29,15.80
2011,08,23,09,30,15.90
2011,08,23,09,31,15.90
2011,08,23,09,32,16.00
2011,08,23,09,33,16.10
2011,08,23,09,34,16.10
2011,08,23,09,35,16.10
2011,08,23,09,36,16.10
2011,08,23,09,37,16.20
2011,08,23,09,38,16.20
2011,08,23,09,39,16.30
2011,08,23,09,40,16.30
2011,08,23,09,41,16.40
2011,08,23,09,42,16.40
2011,08,23,09,43,16.40
2011,08,23,09,44,16.50
2011,08,23,09,45,16.60
2011,08,23,09,46,16.60
2011,08,23,09,47,16.70
2011,08,23,09,48,16.70
2011,08,23,09,49,16.70
2011,08,23,09,50,16.70
2011,08,23,09,51,16.80
2011,08,23,09,52,16.70
2011,08,23,09,53,16.80
2011,08,23,09,54,16.80
2011,08,23,09,55,16.90
2011,08,23,09,56,17.00
2011,08,23,09,57,17.00
2011,08,23,09,58,17.00
2011,08,23,09,59,17.10
2011,08,23,10,00,17.10
2011,08,23,10,01,17.20
2011,08,23,10,02,17.30
2011,08,23,10,03,17.40
2011,08,23,10,04,17.50
2011,08,23,10,05,17.60
2011,08,23,10,06,17.70
2011,08,23,10,07,17.70
2011,08,23,10,08,17.80
2011,08,23,10,09,17.80
2011,08,23,10,10,17.80
2011,08,23,10,11,17.80
2011,08,23,10,12,17.70
2011,08,23,10,13,17.70
2011,08,23,10,14,17.70
2011,08,23,10,15,17.70
2011,08,23,10,16,17.70
2011,08,23,10,17,17.70
2011,08,23,10,18,17.80
2011,08,23,10,19,17.80
2011,08,23,10,20,17.90
2011,08,23,10,21,17.90
2011,08,23,10,22,17.90
2011,08,23,10,23,17.90
2011,08,23,10,24,17.90
2011,08,23,10,25,18.00
2011,08,23,10,26,18.10
2011,08,23,10,27,18.10
2011,08,23,10,28,18.10
2011,08,23,10,29,18.20
2011,08,23,10,30,18.20
2011,08,23,10,31,18.20
2011,08,23,10,32,18.20
2011,08,23,10,33,18.20
2011,08,23,10,34,18.20
2011,08,23,10,35,18.20
2011,08,23,10,36,18.20
2011,08,23,10,37,18.20
2011,08,23,10,38,18.20
2011,08,23,10,39,18.20
2011,08,23,10,40,18.20
2011,08,23,10,41,18.20
2011,08,23,10,42,18.30
2011,08,23,10,43,18.30
2011,08,23,10,44,18.40
2011,08,23,10,45,18.40
2011,08,23,10,46,18.30
2011,08,23,10,47,18.30
2011,08,23,10,48,18.30
2011,08,23,10,49,18.30
2011,08,23,10,50,18.40
2011,08,23,10,51,18.40
2011,08,23,10,52,18.50
2011,08,23,10,53,18.50
2011,08,23,10,54,18.40
2011,08,23,10,55,18.50
2011,08,23,10,56,18.50
2011,08,23,10,57,18.60
2011,08,23,10,58,18.60
2011,08,23,10,59,18.60
2011,08,23,11,00,18.70
2011,08,23,11,01,18.80
2011,08,23,11,02,18.80
2011,08,23,11,03,18.80
2011,08,23,11,04,18.70
2011,08,23,11,05,18.70
2011,08,23,11,06,18.70
2011,08,23,11,07,18.80
2011,08,23,11,08,18.90
2011,08,23,11,09,18.80
2011,08,23,11,10,18.50
2011,08,23,11,11,18.40
2011,08,23,11,12,18.40
2011,08,23,11,13,18.40
2011,08,23,11,14,18.50
2011,08,23,11,15,18.50
2011,08,23,11,16,18.40
2011,08,23,11,17,18.30
2011,08,23,11,18,18.40
2011,08,23,11,19,18.40
2011,08,23,11,20,18.50
2011,08,23,11,21,18.30
2011,08,23,11,22,18.30
2011,08,23,11,23,18.20
2011,08,23,11,24,18.20
2011,08,23,11,25,18.20
2011,08,23,11,26,18.20
2011,08,23,11,27,18.10
2011,08,23,11,28,18.00
2011,08,23,11,29,17.90
2011,08,23,11,30,17.90
2011,08,23,11,31,17.80
2011,08,23,11,32,17.80
2011,08,23,11,33,17.80
2011,08,23,11,34,17.80
2011,08,23,11,35,17.80
2011,08,23,11,36,17.70
2011,08,23,11,37,17.70
2011,08,23,11,38,17.70
2011,08,23,11,39,17.60
2011,08,23,11,40,17.60
2011,08,23,11,41,17.60
2011,08,23,11,42,17.60
2011,08,23,11,43,17.60
2011,08,23,11,44,17.60
2011,08,23,11,45,17.70
2011,08,23,11,46,17.70
2011,08,23,11,47,17.80
2011,08,23,11,48,17.90
2011,08,23,11,49,17.90
2011,08,23,11,50,17.90
2011,08,23,11,51,17.90
2011,08,23,11,52,17.80
2011,08,23,11,53,17.60
2011,08,23,11,54,17.60
2011,08,23,11,55,17.40
2011,08,23,11,56,17.20
2011,08,23,11,57,17.00
2011,08,23,11,58,17.00
2011,08,23,11,59,16.90
2011,08,23,12,00,16.80
2011,08,23,12,01,16.70
2011,08,23,12,02,16.50
2011,08,23,12,03,16.40
2011,08,23,12,04,16.30
2011,08,23,12,05,16.40
2011,08,23,12,06,16.30
2011,08,23,12,07,16.30
2011,08,23,12,08,16.30
2011,08,23,12,09,16.30
2011,08,23,12,10,16.40
2011,08,23,12,11,16.50
2011,08,23,12,12,16.60
2011,08,23,12,13,16.60
2011,08,23,12,14,16.60
2011,08,23,12,15,16.50
2011,08,23,12,16,16.40
2011,08,23,12,17,16.40
2011,08,23,12,18,16.40
2011,08,23,12,19,16.50
2011,08,23,12,20,16.60
2011,08,23,12,21,16.70
2011,08,23,12,22,16.70
2011,08,23,12,23,16.80
2011,08,23,12,24,17.00
2011,08,23,12,25,17.00
2011,08,23,12,26,16.90
2011,08,23,12,27,16.80
2011,08,23,12,28,16.80
2011,08,23,12,29,16.80
2011,08,23,12,30,16.90
2011,08,23,12,31,16.90
2011,08,23,12,32,16.90
2011,08,23,12,33,16.90
2011,08,23,12,34,17.00
2011,08,23,12,35,17.10
2011,08,23,12,36,17.10
2011,08,23,12,37,17.20
2011,08,23,12,38,17.30
2011,08,23,12,39,17.30
2011,08,23,12,40,17.30
2011,08,23,12,41,17.30
2011,08,23,12,42,17.20
2011,08,23,12,43,17.20
2011,08,23,12,44,17.00
2011,08,23,12,45,16.90
2011,08,23,12,46,16.90
2011,08,23,12,47,16.80
2011,08,23,12,48,16.70
2011,08,23,12,49,16.70
2011,08,23,12,50,16.70
2011,08,23,12,51,16.70
2011,08,23,12,52,16.70
2011,08,23,12,53,16.80
2011,08,23,12,54,16.80
2011,08,23,12,55,16.70
2011,08,23,12,56,16.80
2011,08,23,12,57,16.70
2011,08,23,12,58,16.70
2011,08,23,12,59,16.70
2011,08,23,13,00,16.80
2011,08,23,13,01,16.90
2011,08,23,13,02,16.90
2011,08,23,13,03,17.00
2011,08,23,13,04,17.10
2011,08,23,13,05,17.20
2011,08,23,13,06,17.20
2011,08,23,13,07,17.20
2011,08,23,13,08,17.20
2011,08,23,13,09,17.20
2011,08,23,13,10,17.30
2011,08,23,13,11,17.40
2011,08,23,13,12,17.40
2011,08,23,13,13,17.40
2011,08,23,13,14,17.30
2011,08,23,13,15,17.20
2011,08,23,13,16,17.20
2011,08,23,13,17,17.20
2011,08,23,13,18,17.20
2011,08,23,13,19,17.20
2011,08,23,13,20,17.30
2011,08,23,13,21,17.30
2011,08,23,13,22,17.40
2011,08,23,13,23,17.50
2011,08,23,13,24,17.40
2011,08,23,13,25,17.40
2011,08,23,13,26,17.40
2011,08,23,13,27,17.50
2011,08,23,13,28,17.60
2011,08,23,13,29,17.70
2011,08,23,13,30,17.90
2011,08,23,13,31,17.90
2011,08,23,13,32,17.90
2011,08,23,13,33,17.90
2011,08,23,13,34,18.00
2011,08,23,13,35,18.10
2011,08,23,13,36,18.30
2011,08,23,13,37,18.40
2011,08,23,13,38,18.40
2011,08,23,13,39,18.40
2011,08,23,13,40,18.50
2011,08,23,13,41,18.50
2011,08,23,13,42,18.50
2011,08,23,13,43,18.60
2011,08,23,13,44,18.60
2011,08,23,13,45,18.60
2011,08,23,13,46,18.70
2011,08,23,13,47,18.60
2011,08,23,13,48,18.60
2011,08,23,13,49,18.60
2011,08,23,13,50,18.50
2011,08,23,13,51,18.50
2011,08,23,13,52,18.60
2011,08,23,13,53,18.60
2011,08,23,13,54,18.60
2011,08,23,13,55,18.70
2011,08,23,13,56,18.70
2011,08,23,13,57,18.70
2011,08,23,13,58,18.80
2011,08,23,13,59,18.80
2011,08,23,14,00,18.80
2011,08,23,14,01,18.80
2011,08,23,14,02,18.90
2011,08,23,14,03,19.00
2011,08,23,14,04,19.10
2011,08,23,14,05,19.10
2011,08,23,14,06,19.10
2011,08,23,14,07,19.10
2011,08,23,14,08,19.10
2011,08,23,14,09,19.10
2011,08,23,14,10,19.10
2011,08,23,14,11,19.10
2011,08,23,14,12,19.10
2011,08,23,14,13,19.00
2011,08,23,14,14,18.90
2011,08,23,14,15,18.90
2011,08,23,14,16,18.90
2011,08,23,14,17,18.90
2011,08,23,14,18,18.90
2011,08,23,14,19,18.90
2011,08,23,14,20,19.10
2011,08,23,14,21,19.10
2011,08,23,14,22,19.20
2011,08,23,14,23,19.10
2011,08,23,14,24,19.30
2011,08,23,14,25,19.40
2011,08,23,14,26,19.50
2011,08,23,14,27,19.50
2011,08,23,14,28,19.50
2011,08,23,14,29,19.30
2011,08,23,14,30,19.20
2011,08,23,14,31,19.20
2011,08,23,14,32,19.10
2011,08,23,14,33,19.20
2011,08,23,14,34,19.30
2011,08,23,14,35,19.30
2011,08,23,14,36,19.40
2011,08,23,14,37,19.40
2011,08,23,14,38,19.40
2011,08,23,14,39,19.50
2011,08,23,14,40,19.60
2011,08,23,14,41,19.60
2011,08,23,14,42,19.60
2011,08,23,14,43,19.60
2011,08,23,14,44,19.60
2011,08,23,14,45,19.60
2011,08,23,14,46,19.60
2011,08,23,14,47,19.60
2011,08,23,14,48,19.60
2011,08,23,14,49,19.60
2011,08,23,14,50,19.60
2011,08,23,14,51,19.40
2011,08,23,14,52,19.30
2011,08,23,14,53,19.30
2011,08,23,14,54,19.20
2011,08,23,14,55,19.10
2011,08,23,14,56,19.10
2011,08,23,14,57,19.00
2011,08,23,14,58,18.90
2011,08,23,14,59,18.90
2011,08,23,15,00,18.90
2011,08,23,15,01,18.90
2011,08,23,15,02,18.90
2011,08,23,15,03,18.90
2011,08,23,15,04,18.90
2011,08,23,15,05,18.90
2011,08,23,15,06,18.90
2011,08,23,15,07,18.90
2011,08,23,15,08,18.90
2011,08,23,15,09,18.90
2011,08,23,15,10,18.90
2011,08,23,15,11,18.90
2011,08,23,15,12,19.00
2011,08,23,15,13,19.10
2011,08,23,15,14,19.10
2011,08,23,15,15,19.20
2011,08,23,15,16,19.20
2011,08,23,15,17,19.20
2011,08,23,15,18,19.20
2011,08,23,15,19,19.20
2011,08,23,15,20,19.30
2011,08,23,15,21,19.40
2011,08,23,15,22,19.30
2011,08,23,15,23,19.30
2011,08,23,15,24,19.40
2011,08,23,15,25,19.40
2011,08,23,15,26,19.40
2011,08,23,15,27,19.40
2011,08,23,15,28,19.40
2011,08,23,15,29,19.40
2011,08,23,15,30,19.50
2011,08,23,15,31,19.50
2011,08,23,15,32,19.60
2011,08,23,15,33,19.60
2011,08,23,15,34,19.50
2011,08,23,15,35,19.40
2011,08,23,15,36,19.30
2011,08,23,15,37,19.30
2011,08,23,15,38,19.40
2011,08,23,15,39,19.30
2011,08,23,15,40,19.20
2011,08,23,15,41,19.30
2011,08,23,15,42,19.30
2011,08,23,15,43,19.30
2011,08,23,15,44,19.30
2011,08,23,15,45,19.30
2011,08,23,15,46,19.30
2011,08,23,15,47,19.30
2011,08,23,15,48,19.30
2011,08,23,15,49,19.20
2011,08,23,15,50,19.20
2011,08,23,15,51,19.20
2011,08,23,15,52,19.20
2011,08,23,15,53,19.40
2011,08,23,15,54,19.50
2011,08,23,15,55,19.60
2011,08,23,15,56,19.60
2011,08,23,15,57,19.60
2011,08,23,15,58,19.60
2011,08,23,15,59,19.60
2011,08,23,16,00,19.60
2011,08,23,16,01,19.60
2011,08,23,16,02,19.60
2011,08,23,16,03,19.60
2011,08,23,16,04,19.60
2011,08,23,16,05,19.60
2011,08,23,16,06,19.60
2011,08,23,16,07,19.70
2011,08,23,16,08,19.80
2011,08,23,16,09,19.80
2011,08,23,16,10,19.90
2011,08,23,16,11,19.90
2011,08,23,16,12,20.00
2011,08,23,16,13,20.10
2011,08,23,16,14,20.20
2011,08,23,16,15,20.20
2011,08,23,16,16,20.30
2011,08,23,16,17,20.20
2011,08,23,16,18,20.20
2011,08,23,16,19,20.40
2011,08,23,16,20,20.60
2011,08,23,16,21,20.70
2011,08,23,16,22,20.60
2011,08,23,16,23,20.50
2011,08,23,16,24,20.40
2011,08,23,16,25,20.30
2011,08,23,16,26,20.30
2011,08,23,16,27,20.30
2011,08,23,16,28,20.20
2011,08,23,16,29,20.20
2011,08,23,16,30,20.10
2011,08,23,16,31,20.20
2011,08,23,16,32,20.20
2011,08,23,16,33,20.30
2011,08,23,16,34,20.40
2011,08,23,16,35,20.40
2011,08,23,16,36,20.50
2011,08,23,16,37,20.40
2011,08,23,16,38,20.50
2011,08,23,16,39,20.60
2011,08,23,16,40,20.60
2011,08,23,16,41,20.60
2011,08,23,16,42,20.80
2011,08,23,16,43,20.80
2011,08,23,16,44,20.90
2011,08,23,16,45,21.00
2011,08,23,16,46,21.10
2011,08,23,16,47,21.10
2011,08,23,16,48,21.10
2011,08,23,16,49,21.20
2011,08,23,16,50,21.20
2011,08,23,16,51,21.10
2011,08,23,16,52,21.20
2011,08,23,16,53,21.20
2011,08,23,16,54,21.20
2011,08,23,16,55,21.30
2011,08,23,16,56,21.30
2011,08,23,16,57,21.30
2011,08,23,16,58,21.30
2011,08,23,16,59,21.30
2011,08,23,17,00,21.30
2011,08,23,17,01,21.20
2011,08,23,17,02,21.10
2011,08,23,17,03,21.20
2011,08,23,17,04,21.20
2011,08,23,17,05,21.30
2011,08,23,17,06,21.30
2011,08,23,17,07,21.20
2011,08,23,17,08,21.00
2011,08,23,17,09,20.90
2011,08,23,17,10,20.90
2011,08,23,17,11,20.90
2011,08,23,17,12,20.80
2011,08,23,17,13,20.90
2011,08,23,17,14,20.90
2011,08,23,17,15,21.00
2011,08,23,17,16,20.90
2011,08,23,17,17,20.90
2011,08,23,17,18,20.90
2011,08,23,17,19,21.00